OBJECT A, 60235

Orbit data source: Space-Track

You're viewing an Uncataloged Satellite

Recently launched and/or uncataloged satellites may have evolving metadata. Metadata may include but not limited to: Owner, Maufacturer, Bus, Motor, and Mission.

OBJECT A, 60235 is a satellite in LEO that was launched on Tue, 09 Jul 2024 UTC via an ARIANE 62 launch vehicle from the French Guiana (FRGUI). Unknown objects in Earth's orbit typically refer to objects detected orbiting the Earth but have not yet been identified or cataloged. These objects could be anything from previously untracked satellites, spent rocket stages, debris from satellite collisions, or even natural meteoroids temporarily captured by Earth's gravity.

Loading next visibility...
Identifier
60235, 2024-128A
Orbit
LEO
Country
Flag of TBDTBD
Related business
None
Manufacturer
UCB
Mission
Amateur Science
Bus & Motor
CUBESAT 3U, Unknown motor
Mass
5 kg wet, 5 kg dry
Launch date (UTC)
2024-07-09 (1 year ago)
Launch vehicle
ARIANE 62
Launch site
French Guiana (FRGUI)
Object type
Unknown
Shape & HBR
Box, 0.1 m
Radar Cross Section
0.035 m², Small (<0.1 m²)

Expand to show TLE details & history
Last TLE update: 9 hours ago

TLE from 9 hours ago
0 OBJECT A
1 60235U 24128A   25242.97721579  .00005302  00000-0  43301-3 0  9999
2 60235  61.9944 159.3212 0062752  69.6572 291.1244 14.99123808 62467
Epoch: 2025-08-30T23:27Z
TLE epoch observation values (Epoch: 2025-08-30T23:27:11.444Z)
Latitude
-0.00007°
Longitude
-171.88029°
Altitude
555.895 km
Speed
7.593 km/s
True Right ascension
10h 37m 17s
True Declination
0° 00' 00"
Sunlit
Object was in daylight at epoch
Visualization orbit readout
Latitude
Unknown
Longitude
Unknown
Altitude
Unknown
Speed
Unknown
Apparent Right ascension
Unknown
Apparent Declination
Unknown
Sunlit
N/A
Visualization observer readout
Local Sidereal Time
00:21:45
Azimuth
Unknown
Elevation
Unknown
Doppler factor
Unknown
Orbital elements
Apogee altitude
612.125 km
Perigee altitude
524.942 km
Semi-major axis
6,946.67 km
Eccentricity
0.00628
Inclination
61.9944°
RAAN
159.3212°
Arg. of periapsis
69.6572°
True anomaly
290.45175°
Mean anomaly
291.1244°
Eccentric anomaly
290.78826°
Mean motion
3.74868 °/min
Orbital period
96.03 mins
BSTAR
0.00043301
Loading maneuver chart data...
Computing Atmospheric mass density...
Loading historical data...
Loading historical data...
Loading historical data...
Loading historical data...
Loading historical data...
Loading historical data...
Loading historical data...

Documentation

Showing up to 5 results
|